Location: Alvis C Story Elementary School
(33.0968°N, 96.6364°W)
Time: 03:34:52
(UTC+00:00)

Cosmos 2228 Rocket - Pass Details

Date: 05 July 2022
Orbit: 618 x 651 km, 82.5° (Epoch: 14 August)

Event Time Altitude Azimuth Distance (km) Brightness Sun altitude
Rises 09:35:38 0° 359° (N) 2,919 7.2 -18.9°
Reaches altitude 10° 09:37:55 10° 5° (N) 2,013 6.4 -18.6°
Maximum altitude 09:42:16 52° 81° (E) 790 3.9 -17.9°
Drops below altitude 10° 09:46:38 10° 159° (SSE) 2,020 5.5 -17.3°
Enters shadow 09:47:48 - 162° (SSE) 2,479 5.9 -17.1°
